(67) Asia
ephemeris date magn radius delta ra dec elong phase
Today26 Jul 202613.92.641 AU3.281 AU11h07m+03°48'43.7°15.4°
Opposition1 Jul 202710.42.014 AU1.008 AU18h38m-11°19'168.2°5.9°
(67) Asia - 2026-07-26
astro.vanbuitenen.nl


 
-1 year
-1 month
-1 day
Now
+1 day
+1 month
+1 year

The interactive orbit chart above shows the body's path through the solar system and its position at the given date. Green and blue lines are shown perpendicular to the ecliptic plane: Green if the path is above the ecliptic plane, blue if it is below. (Left-click and drag to rotate the view; Right-click and drag to move the view; Use scroll wheel to zoom in our out.)

The orbital elements of Asia are:

            e (Eccentricity)                : 0.1861837
            a (Semimajor axis)              : 2.4211692
            i (Inclination)                 : 6.02637
            Ω (Longitude of ascending node) : 202.22448
            ω (Argument of perihelion)      : 107.67812
            M (Mean anomaly)                : 237.75903
            Epoch                           : 2026 Jun 09

            L (Longitude of perihelion)     : 129.99467
            B (Latitude of perihelion)      : 5.74081
            P (Orbital period in years)     : 3.77            
        

The light curve chart below shows the estimated development of the minor planet's magnitude.


The all-sky chart below shows the path of the minor planet over the same period as the light curve. The current position is marked yellow.





The following chart shows the path of the minor planet in the next few days. The field of view is optimized for (~10x50) binoculars and finderscopes.




Ephemerides:
Date       Time       RA (2000)    DEC (2000)    delta   radius  elong  phase   PA    magn
2026-07-26 00:00 UT   11 07 12.9   +03 48 30     3.281    2.641   43.7   15.4   115   13.9 
2026-07-26 06:13 UT   11 07 34.9   +03 46 33     3.282    2.641   43.6   15.4   115   13.9 
2026-07-27 00:00 UT   11 08 38.1   +03 40 59     3.288    2.640   43.1   15.3   115   13.9 
2026-07-28 00:00 UT   11 10 03.6   +03 33 25     3.295    2.638   42.6   15.1   115   13.9 
2026-07-29 00:00 UT   11 11 29.4   +03 25 48     3.302    2.636   42.0   14.9   115   13.9 
2026-07-30 00:00 UT   11 12 55.5   +03 18 07     3.309    2.635   41.4   14.8   115   13.9 
2026-07-31 00:00 UT   11 14 21.9   +03 10 23     3.316    2.633   40.8   14.6   115   13.9 
2026-08-01 00:00 UT   11 15 48.5   +03 02 37     3.323    2.631   40.3   14.4   115   13.9 
2026-08-02 00:00 UT   11 17 15.5   +02 54 47     3.330    2.630   39.7   14.3   115   13.9 
2026-08-03 00:00 UT   11 18 42.7   +02 46 54     3.336    2.628   39.1   14.1   115   13.9 
2026-08-04 00:00 UT   11 20 10.2   +02 38 58     3.343    2.626   38.5   13.9   115   13.9 
2026-08-05 00:00 UT   11 21 38.0   +02 30 59     3.349    2.625   38.0   13.8   115   13.9 
2026-08-06 00:00 UT   11 23 06.1   +02 22 57     3.355    2.623   37.4   13.6   115   13.9 
2026-08-07 00:00 UT   11 24 34.4   +02 14 52     3.362    2.621   36.8   13.4   115   13.9 
2026-08-08 00:00 UT   11 26 03.0   +02 06 45     3.368    2.620   36.3   13.2   115   13.9 
2026-08-09 00:00 UT   11 27 31.9   +01 58 35     3.373    2.618   35.7   13.1   115   13.9 
2026-08-10 00:00 UT   11 29 01.0   +01 50 21     3.379    2.616   35.1   12.9   115   13.9 
2026-08-11 00:00 UT   11 30 30.4   +01 42 06     3.385    2.614   34.6   12.7   115   13.9 
2026-08-12 00:00 UT   11 32 00.1   +01 33 47     3.391    2.613   34.0   12.5   115   13.9 
2026-08-13 00:00 UT   11 33 30.0   +01 25 26     3.396    2.611   33.5   12.4   115   13.8 
2026-08-14 00:00 UT   11 35 00.2   +01 17 02     3.401    2.609   32.9   12.2   115   13.8 
2026-08-15 00:00 UT   11 36 30.6   +01 08 36     3.406    2.608   32.3   12.0   115   13.8 
2026-08-16 00:00 UT   11 38 01.3   +01 00 08     3.412    2.606   31.8   11.8   115   13.8 


    Terminology:
            
    delta:  distance between minor planet and earth in AU
    radius: distance between minor planet and sun in AU
    magn:   magnitude (brightness) estimate    
    ra:     right ascension in hours (24h = 360deg)
    dec:    declination in degrees
    elong:  elongation in degrees (angle sun-earth-minor planet)    
    phase:  phase angle in degrees (angle sun-minor planet-earth)        
    AU:     Astronomical Unit (mean distance between earth and sun: 149597870.7 km
    

Orbital elements provided by the MPC (Minor Planet Center).
Calculations by a modified version of AAPlus, a C# implementation of the AA+ project by PJ Naughter from the algorithms presented in the book "Astronomical Algorithms" by Jean Meeus.
NGC2000 dso catalog and star labels from VizieR as provided by the Strasbourg astronomical Data Center.
Tycho2 catalog from the ESO archive.